Flag for U.S.A. Weather past 2 weeks in Billings, Montana, U.S.A.

Now
68 °F

Passing clouds.


Feels Like: 68 °F
Forecast: 62 / 91 °F
Wind: 20 mph from Southwest

Location: Billings Logan International Airport

Current Time: Aug 28, 2015 at 4:00:52 AM

Latest Report: Aug 28, 2015 at 2:53 AM


Visibility: 7 mi

Pressure: 29.95 "Hg (26.82 "Hg at 946m altitude)

Humidity: 45%

Dew point: 46 °F

Location of BillingsLocation

Historic Weather in Billings — Graph

°F

Billings temperature yesterday

Maximum temperature yesterday: 84 °F (at 1:53 PM)
Minimum temperature yesterday: 70 °F (at 6:53 AM)
Average temperature yesterday: 75 °F

Past Weeks' High & Low Weather Summary

 TemperatureHumidityPressure
High99 °F (Aug 14, 2:53 PM)97% (Aug 18, 4:00 AM)30.24 "Hg (Aug 18, 4:00 AM)
Low40 °F (Aug 23, 6:53 AM)12% (Aug 15, 5:53 PM)29.46 "Hg (Aug 21, 5:53 PM)
Average69 °F43%29.96 "Hg
* Reported Aug 13 2:53 AM — Aug 28 2:53 AM, Billings, Weather by CustomWeather, © 2015

Note: Actual official high and low records may vary slightly from our data, if they occured in-between our weather recording intervals... More about our weather records

Advertising

Billings weather history for previous 24 hours

 ConditionsComfort  
Time TempWeatherWind HumidityBarometerVisibility
2:53 AM
Fri, Aug 28
68 °FPassing clouds.20 mph45%29.95 "Hg7 mi
1:53 AM70 °FPassing clouds.18 mph39%29.95 "Hg6 mi
12:53 AM70 °FPassing clouds.18 mph39%29.94 "Hg7 mi
11:53 PM
Thu, Aug 27
70 °FPassing clouds.22 mph39%29.94 "Hg7 mi
10:53 PM71 °FPassing clouds.16 mph38%29.95 "Hg6 mi
9:53 PM71 °FPartly cloudy.17 mph38%29.96 "Hg7 mi
8:53 PM73 °FOvercast.16 mph36%29.96 "Hg7 mi
7:53 PM73 °FPartly sunny.18 mph37%29.95 "Hg6 mi
6:53 PM74 °FMore clouds than sun.21 mph36%29.95 "Hg6 mi
5:53 PM80 °FMostly cloudy.20 mph28%29.94 "Hg7 mi
4:53 PM84 °FOvercast.10 mph24%29.93 "Hg9 mi
3:53 PM84 °FOvercast.13 mph24%29.93 "Hg9 mi
2:53 PM83 °FMore clouds than sun.15 mph24%29.95 "Hg10 mi
1:53 PM84 °FMore clouds than sun.15 mph33%29.94 "Hg10 mi
12:53 PM83 °FPartly sunny.16 mph32%29.94 "Hg10 mi
11:53 AM80 °FPartly sunny.18 mph39%29.96 "Hg10 mi
10:53 AM76 °FOvercast.20 mph45%29.97 "Hg10 mi
9:53 AM73 °FOvercast.18 mph48%29.97 "Hg10 mi
8:53 AM71 °FOvercast.18 mph49%29.96 "Hg10 mi
7:53 AM70 °FOvercast.16 mph51%29.96 "Hg10 mi
6:53 AM70 °FPassing clouds.17 mph49%29.94 "Hg10 mi
5:53 AM71 °FPassing clouds.18 mph47%29.93 "Hg10 mi
4:53 AM72 °FPassing clouds.23 mph44%29.91 "Hg10 mi
Weather by CustomWeather, © 2015

See weather overviewHow to use our weather pages